TIANWANG 1C (TW-1C)
1 40926U 15051B   17360.38315087  .00008004  00000-0  16372-3 0  9999
2 40926  97.2062  38.6431 0010233 180.0083 300.2370 15.46335540126586
TIANWANG 1B (TW-1B)
1 40927U 15051C   17360.53316131  .00008071  00000-0  17176-3 0  9995
2 40927  97.2155  38.7180 0009923 190.6058 310.9968 15.45172803126531
TIANWANG 1A (TW-1A)
1 40928U 15051D   17360.49225264  .00003148  00000-0  87184-4 0  9994
2 40928  97.2063  32.8064 0010738 219.6484 250.3229 15.37663877126238
LAPAN A2
1 40931U 15052B   17360.14316256  .00000586  00000-0 -74668-5 0  9991
2 40931   5.9998 304.0150 0012877  78.0272 282.1406 14.76559309121380
LQSAT
1 40958U 15057A   17360.42276596  .00000058  00000-0  16801-4 0  9995
2 40958  97.9602  72.1986 0018450 166.0305 194.1414 14.73008996119410
CHUBUSAT 2
1 41338U 16012B   17360.35745230  .00000426  00000-0  26651-4 0  9991
2 41338  31.0045 331.6416 0013933 162.1962 197.9164 14.99895216101861
CHUBUSAT 3
1 41339U 16012C   17360.32659562  .00000360  00000-0  21323-4 0  9999
2 41339  31.0106 330.6848 0013666 168.5988 191.4958 15.00088308101846
OUFTI-1
1 41458U 16025C   17360.10285076  .00000910  00000-0  52042-4 0  9999
2 41458  98.1599  48.5449 0172011   8.1928 352.2076 15.04081861 91413
E-STAR-2
1 41459U 16025D   17360.08139411  .00001930  00000-0  10556-3 0  9994
2 41459  98.1620  48.4236 0172297   8.7970 351.6222 15.03865644 91404
AAUSAT 4
1 41460U 16025E   17360.07922370  .00002576  00000-0  13845-3 0  9990
2 41460  98.1559  48.6844 0164120   6.0454 354.2715 15.05083777 91449
NUSAT 1
1 41557U 16033B   17360.22610068  .00001789  00000-0  68382-4 0  9993
2 41557  97.4501  79.6920 0015199  53.5664 306.6974 15.27859908 87742
BEESAT 4
1 41619U 16040W   17359.74882831 +.00001959 +00000-0 +89754-4 0  9999
2 41619 097.4394 060.1264 0013301 115.4565 244.8048 15.21601850071718
PRATHAM
1 41783U 16059A   17359.74888018 +.00000070 +00000-0 +23067-4 0  9992
2 41783 098.1433 058.8882 0032334 280.3622 079.3936 14.62889896066606
ALSAT 1N
1 41789U 16059G   17360.39838076  .00000098  00000-0  27862-4 0  9997
2 41789  98.1438  60.4059 0026919 271.5413  88.2704 14.64113809 66736
NAYIF 1
1 42017U 17008BX  17359.90608666 +.00002335 +00000-0 +99752-4 0  9995
2 42017 097.4721 060.8363 0004913 267.9251 092.1423 15.23880384047678
LILACSAT-1
1 42725U 98067ME  17360.05472736  .00025333  00000-0  28828-3 0  9998
2 42725  51.6368 156.0232 0004745 296.8268  63.2241 15.62108282 33392
MAX VALIER SAT
1 42778U 17036P   17359.90747208 +.00001340 +00000-0 +63608-4 0  9992
2 42778 097.4284 057.3004 0011632 322.2181 037.8237 15.20934622028166
